• In Hungary
  • List of Countries
  • For 7 days
  • Water Temperature
  • Satellite Maps
  • Weather Map
  • News
  • Weather Widgets
  • user-avatar
    Login

    Hourly Weather Biskira

    Today, 23 November, Thursday

    Time Temperature Precipitation Wind Pressure Humidity
    00:00 +13°C° 0 mm 1 mps 755 mmHg 50%
    01:00 +13°C° 0 mm 1 mps 755 mmHg 50%
    02:00 +12°C° 0 mm 1 mps 754 mmHg 51%
    03:00 +12°C° 0 mm 1 mps 754 mmHg 52%
    04:00 +12°C° 0 mm 1 mps 754 mmHg 53%
    05:00 +11°C° 0 mm 0 mps 754 mmHg 54%
    06:00 +10°C° 0 mm 0 mps 755 mmHg 56%
    07:00 +12°C° 0 mm 0 mps 755 mmHg 52%
    08:00 +14°C° 0 mm 1 mps 755 mmHg 47%
    09:00 +16°C° 0 mm 1 mps 755 mmHg 43%
    10:00 +18°C° 0 mm 1 mps 755 mmHg 40%
    11:00 +18°C° 0 mm 2 mps 755 mmHg 38%
    12:00 +19°C° 0 mm 2 mps 755 mmHg 35%
    13:00 +20°C° 0 mm 2 mps 755 mmHg 34%
    14:00 +20°C° 0 mm 2 mps 754 mmHg 33%
    15:00 +20°C° 0 mm 3 mps 754 mmHg 32%
    16:00 +19°C° 0 mm 2 mps 755 mmHg 34%
    17:00 +18°C° 0 mm 2 mps 755 mmHg 37%
    18:00 +18°C° 0 mm 1 mps 755 mmHg 39%
    19:00 +17°C° 0 mm 2 mps 756 mmHg 39%
    20:00 +17°C° 0 mm 2 mps 756 mmHg 39%
    21:00 +17°C° 0 mm 2 mps 756 mmHg 38%
    22:00 +16°C° 0 mm 2 mps 756 mmHg 38%
    23:00 +16°C° 0 mm 2 mps 756 mmHg 38%

    Tomorrow, 24 November, Friday

    Time Temperature Precipitation Wind Pressure Humidity
    00:00 +16°C° 0 mm 2 mps 756 mmHg 38%
    01:00 +15°C° 0 mm 2 mps 756 mmHg 38%
    02:00 +15°C° 0 mm 2 mps 756 mmHg 38%
    03:00 +15°C° 0 mm 2 mps 756 mmHg 37%
    04:00 +14°C° 0 mm 2 mps 756 mmHg 37%
    05:00 +14°C° 0 mm 2 mps 756 mmHg 37%
    06:00 +14°C° 0 mm 2 mps 756 mmHg 36%
    07:00 +16°C° 0 mm 2 mps 757 mmHg 32%
    08:00 +18°C° 0 mm 1 mps 757 mmHg 28%
    09:00 +20°C° 0 mm 1 mps 757 mmHg 25%
    10:00 +21°C° 0 mm 1 mps 757 mmHg 23%
    11:00 +22°C° 0 mm 1 mps 757 mmHg 22%
    12:00 +22°C° 0 mm 1 mps 757 mmHg 21%
    13:00 +23°C° 0 mm 1 mps 757 mmHg 21%
    14:00 +23°C° 0 mm 1 mps 756 mmHg 21%
    15:00 +23°C° 0 mm 1 mps 756 mmHg 21%
    16:00 +21°C° 0 mm 1 mps 756 mmHg 24%
    17:00 +20°C° 0 mm 1 mps 756 mmHg 28%
    18:00 +16°C° 0 mm 0 mps 756 mmHg 32%
    19:00 +16°C° 0 mm 0 mps 757 mmHg 33%
    20:00 +15°C° 0 mm 0 mps 757 mmHg 33%
    21:00 +15°C° 0 mm 0 mps 757 mmHg 34%
    22:00 +15°C° 0 mm 1 mps 757 mmHg 35%
    23:00 +15°C° 0 mm 1 mps 757 mmHg 36%

    Day after tomorrow, 25 November, Saturday

    Time Temperature Precipitation Wind Pressure Humidity
    00:00 +15°C° 0 mm 1 mps 757 mmHg 36%
    01:00 +14°C° 0 mm 1 mps 757 mmHg 37%
    02:00 +14°C° 0 mm 1 mps 757 mmHg 37%
    03:00 +14°C° 0 mm 1 mps 756 mmHg 37%
    04:00 +13°C° 0 mm 1 mps 756 mmHg 38%
    05:00 +13°C° 0 mm 1 mps 757 mmHg 38%
    06:00 +13°C° 0 mm 1 mps 757 mmHg 38%
    07:00 +14°C° 0 mm 1 mps 757 mmHg 34%
    08:00 +16°C° 0 mm 1 mps 757 mmHg 29%
    09:00 +19°C° 0 mm 1 mps 758 mmHg 25%
    10:00 +20°C° 0 mm 1 mps 757 mmHg 24%
    11:00 +21°C° 0 mm 1 mps 757 mmHg 23%
    12:00 +22°C° 0 mm 1 mps 756 mmHg 21%
    13:00 +22°C° 0 mm 1 mps 756 mmHg 21%
    14:00 +22°C° 0 mm 1 mps 756 mmHg 21%
    15:00 +22°C° 0 mm 1 mps 755 mmHg 21%
    16:00 +21°C° 0 mm 1 mps 756 mmHg 24%
    17:00 +19°C° 0 mm 1 mps 756 mmHg 27%
    18:00 +16°C° 0 mm 0 mps 756 mmHg 30%
    19:00 +16°C° 0 mm 0 mps 756 mmHg 31%
    20:00 +15°C° 0 mm 0 mps 757 mmHg 32%
    21:00 +15°C° 0 mm 0 mps 757 mmHg 32%
    22:00 +14°C° 0 mm 0 mps 757 mmHg 33%
    23:00 +14°C° 0 mm 0 mps 757 mmHg 33%

    26 November, Sunday

    Time Temperature Precipitation Wind Pressure Humidity
    00:00 +14°C° 0 mm 0 mps 757 mmHg 34%
    01:00 +14°C° 0 mm 1 mps 757 mmHg 34%
    02:00 +14°C° 0 mm 1 mps 757 mmHg 34%
    03:00 +14°C° 0 mm 1 mps 756 mmHg 34%
    04:00 +14°C° 0 mm 1 mps 757 mmHg 33%
    05:00 +14°C° 0 mm 1 mps 757 mmHg 33%
    06:00 +13°C° 0 mm 1 mps 757 mmHg 33%
    07:00 +16°C° 0 mm 1 mps 757 mmHg 29%
    08:00 +19°C° 0 mm 1 mps 758 mmHg 25%
    09:00 +21°C° 0 mm 1 mps 758 mmHg 22%
    10:00 +21°C° 0 mm 2 mps 758 mmHg 20%
    11:00 +23°C° 0 mm 2 mps 757 mmHg 19%
    12:00 +24°C° 0 mm 2 mps 757 mmHg 18%
    13:00 +24°C° 0 mm 2 mps 757 mmHg 18%
    14:00 +24°C° 0 mm 2 mps 757 mmHg 19%
    15:00 +24°C° 0 mm 2 mps 757 mmHg 19%
    16:00 +23°C° 0 mm 2 mps 757 mmHg 23%
    17:00 +21°C° 0 mm 2 mps 757 mmHg 26%
    18:00 +19°C° 0 mm 2 mps 757 mmHg 30%
    19:00 +19°C° 0 mm 2 mps 758 mmHg 34%
    20:00 +18°C° 0 mm 3 mps 758 mmHg 38%
    21:00 +18°C° 0 mm 3 mps 759 mmHg 41%
    22:00 +17°C° 0 mm 3 mps 759 mmHg 44%
    23:00 +17°C° 0 mm 2 mps 759 mmHg 48%

    27 November, Monday

    Time Temperature Precipitation Wind Pressure Humidity
    00:00 +16°C° 0 mm 2 mps 759 mmHg 51%
    01:00 +16°C° 0 mm 2 mps 758 mmHg 52%
    02:00 +15°C° 0 mm 1 mps 758 mmHg 54%
    03:00 +15°C° 0 mm 1 mps 758 mmHg 56%
    04:00 +14°C° 0 mm 1 mps 758 mmHg 57%
    05:00 +14°C° 0 mm 1 mps 759 mmHg 58%
    06:00 +14°C° 0 mm 1 mps 759 mmHg 59%
    07:00 +15°C° 0 mm 1 mps 759 mmHg 55%
    08:00 +16°C° 0 mm 2 mps 759 mmHg 51%
    09:00 +18°C° 0 mm 2 mps 759 mmHg 48%
    10:00 +18°C° 0 mm 2 mps 759 mmHg 46%
    11:00 +19°C° 0 mm 3 mps 758 mmHg 45%
    12:00 +20°C° 0 mm 3 mps 758 mmHg 43%
    13:00 +20°C° 0 mm 3 mps 757 mmHg 43%
    14:00 +19°C° 0 mm 3 mps 757 mmHg 43%
    15:00 +19°C° 0 mm 3 mps 756 mmHg 43%
    16:00 +19°C° 0 mm 2 mps 756 mmHg 46%
    17:00 +18°C° 0 mm 2 mps 757 mmHg 50%
    18:00 +18°C° 0 mm 1 mps 757 mmHg 53%
    19:00 +18°C° 0 mm 1 mps 757 mmHg 55%
    20:00 +16°C° 0 mm 1 mps 757 mmHg 58%
    21:00 +16°C° 0 mm 1 mps 757 mmHg 60%
    22:00 +16°C° 0 mm 1 mps 757 mmHg 61%
    23:00 +16°C° 0 mm 1 mps 757 mmHg 62%

    28 November, Tuesday

    Time Temperature Precipitation Wind Pressure Humidity
    00:00 +16°C° 0 mm 1 mps 757 mmHg 63%
    01:00 +16°C° 0 mm 1 mps 756 mmHg 64%
    02:00 +15°C° 0 mm 1 mps 756 mmHg 64%
    03:00 +15°C° 0 mm 1 mps 756 mmHg 65%
    04:00 +15°C° 0 mm 1 mps 756 mmHg 67%
    05:00 +14°C° 0 mm 1 mps 755 mmHg 69%
    06:00 +14°C° 0 mm 1 mps 755 mmHg 70%
    07:00 +15°C° 0 mm 1 mps 756 mmHg 66%
    08:00 +16°C° 0 mm 1 mps 756 mmHg 62%
    09:00 +18°C° 0 mm 1 mps 756 mmHg 58%
    10:00 +19°C° 0 mm 1 mps 755 mmHg 55%
    11:00 +19°C° 0 mm 1 mps 755 mmHg 51%
    12:00 +19°C° 0 mm 2 mps 754 mmHg 48%
    13:00 +19°C° 0 mm 2 mps 754 mmHg 46%
    14:00 +20°C° 0 mm 2 mps 753 mmHg 45%
    15:00 +20°C° 0 mm 2 mps 753 mmHg 44%
    16:00 +19°C° 0 mm 2 mps 753 mmHg 47%
    17:00 +18°C° 0 mm 2 mps 753 mmHg 51%
    18:00 +18°C° 0 mm 1 mps 753 mmHg 54%
    19:00 +17°C° 0 mm 2 mps 753 mmHg 55%
    20:00 +17°C° 0 mm 2 mps 754 mmHg 57%
    21:00 +16°C° 0 mm 2 mps 754 mmHg 58%
    22:00 +16°C° 0 mm 2 mps 753 mmHg 59%
    23:00 +15°C° 0 mm 2 mps 753 mmHg 61%
    Show more